DW9924 Weather Reports


Display with metric or nautical units.
time (UTC)temp
F
wind
direction
speed
MPH
gust
MPH
rain 1hr
in
rain 24hr
in
rain mn
in
humidity
%
barometer
mb
20260505071907 57 32 2.0 3.0 0.04 1.39 1.39 88 1012.1
20260505071407 57 56 1.0 6.0 0.06 1.39 1.39 88 1012.0
20260505070906 57 89 1.0 6.0 0.08 1.39 1.39 88 1012.0
20260505070407 57 53 3.0 8.0 0.09 1.39 1.39 89 1011.9
20260505064906 57 117 1.0 3.0 0.18 1.39 1.39 89 1012.0
20260505064406 57 29 1.0 3.0 0.24 1.39 1.39 89 1011.8
20260505063907 56 67 2.0 9.0 0.37 1.38 1.38 88 1011.7
20260505063407 56 24 5.0 15.0 0.53 1.37 1.37 88 1011.6
20260505061409 56 252 2.0 6.0 0.61 1.33 1.33 89 1010.8
20260505060407 55 309 1.0 9.0 0.62 1.29 1.29 89 1011.3
20260505054906 56 358 3.0 9.0 0.67 1.20 1.20 89 1011.6
20260505054407 57 152 2.0 8.0 0.65 1.15 1.15 89 1011.4
20260505053907 57 340 3.0 6.0 0.54 1.01 1.01 89 1011.5
20260505053407 57 311 1.0 3.0 0.39 0.84 0.84 89 1011.3
20260505051906 57 258 1.0 2.0 0.30 0.72 0.72 88 1011.0
20260505051414 57 189 2.0 6.0 0.30 0.72 0.72 88 1010.8
20260505050907 57 4 2.0 5.0 0.29 0.70 0.70 88 1010.8
20260505050406 57 66 2.0 3.0 0.30 0.67 0.67 88 1010.9
20260505041406 57 14 3.0 8.0 0.29 0.42 0.42 86 1011.2
20260505040907 57 9 2.0 3.0 0.28 0.41 0.41 86 1011.4
20260505034406 57 66 2.0 5.0 0.12 0.24 0.24 85 1011.6
20260505033907 57 67 2.0 9.0 0.08 0.20 0.20 85 1011.6
20260505031406 57 66 2.0 5.0 0.06 0.13 0.13 85 1011.9
20260505030406 57 177 0.0 3.0 0.08 0.13 0.13 85 1012.3
20260505024907 57 14 2.0 3.0 0.09 0.13 0.13 84 1012.5
20260505024406 57 35 2.0 3.0 0.09 0.12 0.12 84 1012.6
20260505023908 57 79 1.0 3.0 0.09 0.12 0.12 84 1012.8
20260505023406 58 11 0.0 3.0 0.07 0.10 0.10 83 1012.8
20260505021906 58 68 1.0 3.0 0.06 0.07 0.07 82 1013.0
20260505014906 59 34 1.0 3.0 0.03 0.03 0.03 79 1013.2
20260505014407 59 57 1.0 3.0 0.03 0.03 0.03 78 1013.2
20260505013906 59 60 1.0 3.0 0.03 0.03 0.03 77 1013.3
20260505013407 59 5 2.0 7.0 0.03 0.03 0.03 77 1013.4
20260505011909 60 16 2.0 5.0 0.02 0.02 0.02 75 1013.9
20260505011418 60 35 2.0 5.0 0.02 0.02 0.02 74 1013.9
20260505010906 61 91 2.0 5.0 0.01 0.01 0.01 73 1014.1
20260505010406 61 97 2.0 6.0 0.01 0.01 0.01 72 1014.1
20260505004906 62 95 2.0 3.0 0.00 0.00 0.00 69 1014.6
20260505004413 62 27 1.0 5.0 0.00 0.00 0.00 68 1014.7
20260505003906 63 90 2.0 3.0 0.00 0.00 0.00 67 1014.7
20260505003410 63 111 1.0 5.0 0.00 0.00 0.00 66 1014.7
20260505001906 63 105 2.0 5.0 0.00 0.00 0.00 64 1014.8
20260505001407 63 96 2.0 6.0 0.00 0.00 0.00 64 1015.0
20260505000906 63 35 2.0 7.0 0.00 0.00 0.00 64 1015.0
20260505000406 63 78 2.0 8.0 0.00 0.00 0.00 64 1015.1
20260504234906 63 129 1.0 3.0 0.00 0.00 0.00 65 1015.3
20260504233909 63 115 3.0 9.0 0.00 0.00 0.00 65 1015.3
20260504231907 63 125 2.0 7.0 0.00 0.00 0.00 65 1015.8
20260504231406 63 54 3.0 6.0 0.00 0.00 0.00 66 1016.1
20260504230906 63 110 2.0 10.0 0.00 0.00 0.00 66 1016.1
20260504230405 62 77 2.0 7.0 0.00 0.00 0.00 67 1016.1
20260504224908 63 155 2.0 3.0 0.00 0.00 0.00 68 1016.4
20260504224406 63 93 2.0 7.0 0.00 0.00 0.00 67 1016.4
20260504223907 63 127 1.0 3.0 0.00 0.00 0.00 68 1016.4
20260504223406 63 92 2.0 7.0 0.00 0.00 0.00 68 1016.5
20260504221908 63 135 1.0 8.0 0.00 0.00 0.00 68 1016.6
20260504221405 62 72 2.0 3.0 0.00 0.00 0.00 68 1016.7
20260504220908 62 113 1.0 3.0 0.00 0.00 0.00 69 1016.8
20260504220406 62 151 2.0 7.0 0.00 0.00 0.00 69 1017.1
20260504214906 62 55 2.0 3.0 0.00 0.00 0.00 72 1017.2
20260504213906 62 86 1.0 3.0 0.00 0.00 0.00 74 1017.4
20260504213406 62 82 1.0 2.0 0.00 0.00 0.00 74 1017.4
20260504211906 62 19 1.0 2.0 0.00 0.00 0.00 75 1017.5
20260504211405 63 44 2.0 2.0 0.00 0.00 0.00 75 1017.6
20260504210906 63 69 1.0 3.0 0.00 0.00 0.00 75 1017.7
20260504210405 63 102 2.0 3.0 0.00 0.00 0.00 75 1017.8
20260504204408 63 93 1.0 2.0 0.00 0.00 0.00 76 1017.8
20260504203906 63 78 1.0 3.0 0.00 0.00 0.00 76 1017.7
20260504201908 63 142 1.0 3.0 0.00 0.00 0.00 76 1017.8
20260504201405 63 109 1.0 3.0 0.00 0.00 0.00 75 1017.8
20260504200906 63 130 2.0 5.0 0.00 0.00 0.00 75 1017.8
20260504200406 63 138 2.0 5.0 0.00 0.00 0.00 75 1017.9
20260504193908 63 99 2.0 5.0 0.00 0.00 0.00 76 1017.8
20260504193405 63 114 2.0 8.0 0.00 0.00 0.00 76 1017.8
20260504191912 63 144 2.0 7.0 0.00 0.00 0.00 75 1017.6
20260504191405 63 139 1.0 3.0 0.00 0.00 0.00 75 1017.8
20260504190909 63 107 2.0 7.0 0.00 0.00 0.00 75 1017.8
20260504190406 63 134 3.0 7.0 0.00 0.00 0.00 74 1017.9
20260504184405 63 130 2.0 3.0 0.00 0.00 0.00 73 1017.7
20260504183407 63 143 1.0 5.0 0.00 0.00 0.00 72 1017.7
20260504181905 64 132 2.0 7.0 0.00 0.00 0.00 71 1017.5
20260504181405 64 138 1.0 3.0 0.00 0.00 0.00 71 1017.5
20260504180905 64 138 2.0 3.0 0.00 0.00 0.00 70 1017.6
20260504180405 64 131 2.0 6.0 0.00 0.00 0.00 70 1017.5
20260504174405 65 118 2.0 6.0 0.00 0.00 0.00 68 1017.3
20260504173905 66 123 3.0 8.0 0.00 0.00 0.00 68 1017.3
20260504173405 66 160 2.0 7.0 0.00 0.00 0.00 67 1017.4
20260504171905 66 129 1.0 7.0 0.00 0.00 0.00 66 1017.4
20260504171405 66 149 2.0 5.0 0.00 0.00 0.00 67 1017.4
20260504170906 66 135 1.0 5.0 0.00 0.00 0.00 64 1017.4
20260504160405 67 121 1.0 7.0 0.00 0.00 0.00 68 1017.7
20260504150905 69 160 2.0 7.0 0.00 0.00 0.00 52 1017.7
20260504150408 70 148 2.0 6.0 0.00 0.00 0.00 56 1017.8
20260504140904 67 187 1.0 5.0 0.00 0.00 0.00 68 1018.3
20260504110406 66 153 3.0 8.0 0.00 0.00 0.00 66 1019.5
20260504081907 65 142 2.0 3.0 0.00 0.00 0.00 63 1019.6
20260504081408 65 189 1.0 3.0 0.00 0.00 0.00 61 1019.5
20260504080908 65 159 2.0 6.0 0.00 0.00 0.00 60 1019.4